Weather History for KGSB - January, 2014

Change the Weather History Date:

Saturday, January 11, 2014

  Actual Average Record
Temperature  
Mean Temperature 65 °F -  
Max Temperature 75 °F 52 °F 75 °F (2014)
Min Temperature 55 °F 33 °F 12 °F (2004)
Growing Degree Days 15 (Base 50)    
Moisture  
Dew Point 64 °F    
Average Humidity 94    
Maximum Humidity 100    
Minimum Humidity 78    
Precipitation  
Precipitation 1.37 in - - ()
Sea Level Pressure  
Sea Level Pressure 29.81 in    
Wind  
Wind Speed 10 mph (SSW)    
Max Wind Speed 36 mph    
Max Gust Speed 44 mph    
Visibility 8 miles    
Events Fog , Rain    
Averages and records for this station are not official NWS values.
T = Trace of Precipitation, MM = Missing Value Source: NWS Daily Summary

Daily Weather History Graph

Daily Weather History Graph

Search for Another Location

Airport or City:

Trip Planner

Search our weather history database for the weather conditions in past years. The results will help you decide how hot, cold, wet, or windy it might be!

Date:

Astronomy

Jan. 11, 2014 Rise Set
Actual Time 7:20 AM EST 5:18 PM EST
Civil Twilight 6:53 AM EST 5:46 PM EST
Nautical Twilight 6:21 AM EST 6:18 PM EST
Astronomical Twilight 5:51 AM EST 6:48 PM EST
Moon 2:00 PM EST (1/11) 3:25 AM EST (1/11)
Length of Visible Light 10h 53m
Length of Day
9h 57m
Waxing Gibbous, 83% of the Moon is Illuminated
Jan 11
Waxing Gibbous
Jan 15
Full
Jan 24
Last Quarter
Jan 30
New
Feb 6
First Quarter

Hourly Weather History & Observations

Time (EST) Temp. Dew Point Humidity Pressure Visibility Wind Dir Wind Speed Gust Speed Precip Events Conditions
12:19 AM 62.6 °F 62.6 °F 100% 30.07 in 10.0 mi SW 4.6 mph - N/A   Overcast
12:31 AM 64.4 °F 62.6 °F 94% 30.07 in 10.0 mi SSW 5.8 mph - N/A   Overcast
12:49 AM 64.4 °F 64.4 °F 100% 30.06 in 10.0 mi SSW 5.8 mph - N/A   Overcast
12:58 AM 64.8 °F 64.4 °F 99% 30.06 in 10.0 mi SSW 6.9 mph - N/A   Overcast
1:46 AM 64.4 °F 64.4 °F 100% 30.04 in 10.0 mi South 3.5 mph - N/A   Overcast
1:55 AM 64.4 °F 64.4 °F 100% 30.04 in 10.0 mi South 3.5 mph - N/A   Mostly Cloudy
1:58 AM 64.9 °F 64.6 °F 99% 30.05 in 10.0 mi South 3.5 mph - N/A   Mostly Cloudy
2:10 AM 64.4 °F 64.4 °F 100% 30.04 in 10.0 mi SSW 3.5 mph - N/A   Mostly Cloudy
2:13 AM 64.4 °F 64.4 °F 100% 30.04 in 10.0 mi South 2.3 mph - N/A   Mostly Cloudy
2:43 AM 64.4 °F 64.4 °F 100% 30.02 in 10.0 mi South 4.6 mph - N/A   Overcast
2:58 AM 65.1 °F 64.9 °F 99% 30.02 in 10.0 mi SE 3.5 mph - N/A   Overcast
3:13 AM 66.2 °F 64.4 °F 94% 30.00 in 10.0 mi SSE 4.6 mph - N/A   Overcast
3:34 AM 66.2 °F 64.4 °F 94% 29.99 in 10.0 mi SE 4.6 mph - N/A   Overcast
3:37 AM 64.4 °F 64.4 °F 100% 29.99 in 10.0 mi SE 4.6 mph - N/A   Overcast
3:46 AM 64.4 °F 64.4 °F 100% 29.99 in 10.0 mi SE 4.6 mph - N/A   Overcast
3:58 AM 65.1 °F 64.9 °F 99% 29.99 in 10.0 mi SSE 5.8 mph - N/A   Overcast
4:25 AM 66.2 °F 64.4 °F 94% 29.97 in 10.0 mi SSE 6.9 mph - N/A   Overcast
4:28 AM 66.2 °F 64.4 °F 94% 29.97 in 10.0 mi South 8.1 mph - N/A   Overcast
4:46 AM 66.2 °F 64.4 °F 94% 29.96 in 10.0 mi South 8.1 mph - N/A   Overcast
4:58 AM 65.3 °F 65.1 °F 99% 29.96 in 10.0 mi SSE 6.9 mph - N/A   Overcast
5:07 AM 66.2 °F 64.4 °F 94% 29.95 in 10.0 mi SSE 5.8 mph - N/A   Overcast
5:13 AM 66.2 °F 64.4 °F 94% 29.95 in 10.0 mi SSE 5.8 mph - N/A   Overcast
5:43 AM 64.4 °F 64.4 °F 100% 29.94 in 10.0 mi South 5.8 mph - N/A   Overcast
5:49 AM 64.4 °F 64.4 °F 100% 29.94 in 10.0 mi South 5.8 mph - N/A   Mostly Cloudy
5:58 AM 65.1 °F 64.9 °F 99% 29.95 in 10.0 mi SSE 5.8 mph - N/A   Mostly Cloudy
6:01 AM 66.2 °F 64.4 °F 94% 29.93 in 10.0 mi South 5.8 mph - N/A   Overcast
6:04 AM 64.4 °F 64.4 °F 100% 29.93 in 10.0 mi South 5.8 mph - N/A   Overcast
6:07 AM 64.4 °F 64.4 °F 100% 29.94 in 5.0 mi SSW 4.6 mph - N/A Rain Light Rain
6:10 AM 64.4 °F 64.4 °F 100% 29.94 in 4.0 mi SW 5.8 mph - N/A Rain Light Rain
6:13 AM 64.4 °F 64.4 °F 100% 29.94 in 4.0 mi SSW 5.8 mph - N/A Rain Light Rain
6:18 AM 64.4 °F 64.4 °F 100% 29.93 in 8.0 mi SSE 5.8 mph - N/A   Overcast
6:58 AM 65.5 °F 65.1 °F 99% 29.92 in 10.0 mi South 9.2 mph - 0.00 in   Overcast
7:58 AM 66.0 °F 65.7 °F 99% 29.91 in 9.0 mi South 8.1 mph 20.7 mph N/A   Overcast
8:28 AM 66.2 °F 66.2 °F 100% 29.89 in 10.0 mi South 10.4 mph - N/A   Overcast
8:31 AM 66.2 °F 66.2 °F 100% 29.89 in 10.0 mi South 10.4 mph - N/A   Overcast
8:37 AM 66.2 °F 66.2 °F 100% 29.89 in 10.0 mi South 12.7 mph 19.6 mph N/A   Overcast
8:58 AM 67.3 °F 66.7 °F 98% 29.89 in 10.0 mi South 12.7 mph 19.6 mph N/A   Overcast
9:16 AM 68.0 °F 68.0 °F 100% 29.88 in 10.0 mi SSW 11.5 mph 19.6 mph N/A   Mostly Cloudy
9:28 AM 68.0 °F 68.0 °F 100% 29.88 in 10.0 mi SSW 10.4 mph 20.7 mph N/A   Overcast
9:37 AM 68.0 °F 68.0 °F 100% 29.88 in 10.0 mi SSW 10.4 mph - N/A   Overcast
9:49 AM 69.8 °F 68.0 °F 94% 29.88 in 10.0 mi SSW 9.2 mph 20.7 mph N/A   Overcast
9:55 AM 69.8 °F 68.0 °F 94% 29.88 in 10.0 mi SSW 9.2 mph 20.7 mph N/A   Overcast
9:58 AM 69.1 °F 68.5 °F 98% 29.89 in 10.0 mi SSW 9.2 mph 19.6 mph N/A   Overcast
10:58 AM 71.6 °F 68.5 °F 90% 29.86 in 10.0 mi South 10.4 mph 20.7 mph N/A   Overcast
11:07 AM 71.6 °F 68.0 °F 88% 29.84 in 10.0 mi SSW 15.0 mph 21.9 mph N/A   Overcast
11:21 AM 71.6 °F 68.0 °F 88% 29.83 in 10.0 mi SSW 12.7 mph 23.0 mph N/A Rain Light Rain
11:27 AM 71.6 °F 68.0 °F 88% 29.82 in 10.0 mi SSW 11.5 mph 19.6 mph N/A Rain Light Rain
11:30 AM 71.6 °F 68.0 °F 88% 29.82 in 10.0 mi SSW 11.5 mph 19.6 mph N/A   Mostly Cloudy
11:39 AM 71.6 °F 68.0 °F 88% 29.81 in 10.0 mi South 12.7 mph 20.7 mph N/A Rain Light Rain
11:49 AM 71.6 °F 69.8 °F 94% 29.79 in 10.0 mi SSW 13.8 mph 19.6 mph N/A   Mostly Cloudy
11:58 AM 72.5 °F 68.7 °F 88% 29.79 in 10.0 mi SSW 12.7 mph 23.0 mph 0.00 in   Mostly Cloudy
12:22 PM 73.4 °F 68.0 °F 83% 29.75 in 10.0 mi South 11.5 mph 24.2 mph N/A   Mostly Cloudy
12:31 PM 75.2 °F 68.0 °F 78% 29.73 in 10.0 mi SSW 17.3 mph 26.5 mph N/A   Mostly Cloudy
12:43 PM 75.2 °F 68.0 °F 78% 29.72 in 10.0 mi SSW 16.1 mph 25.3 mph N/A   Mostly Cloudy
12:46 PM 73.4 °F 68.0 °F 83% 29.71 in 10.0 mi SSW 15.0 mph 25.3 mph N/A   Mostly Cloudy
12:49 PM 73.4 °F 68.0 °F 83% 29.71 in 10.0 mi South 11.5 mph 24.2 mph N/A   Mostly Cloudy
12:52 PM 73.4 °F 68.0 °F 83% 29.70 in 10.0 mi SSW 13.8 mph 23.0 mph N/A   Mostly Cloudy
12:58 PM 74.3 °F 68.5 °F 82% 29.71 in 10.0 mi SSW 12.7 mph 24.2 mph N/A   Mostly Cloudy
1:13 PM 75.2 °F 68.0 °F 78% 29.69 in 10.0 mi South 18.4 mph 24.2 mph N/A   Mostly Cloudy
1:16 PM 75.2 °F 68.0 °F 78% 29.68 in 10.0 mi SSW 15.0 mph 26.5 mph N/A   Mostly Cloudy
1:22 PM 75.2 °F 68.0 °F 78% 29.67 in 10.0 mi South 17.3 mph 26.5 mph N/A   Mostly Cloudy
1:25 PM 75.2 °F 68.0 °F 78% 29.67 in 10.0 mi SSW 17.3 mph 25.3 mph N/A   Mostly Cloudy
1:34 PM 75.2 °F 68.0 °F 78% 29.66 in 10.0 mi South 20.7 mph 26.5 mph N/A   Mostly Cloudy
1:37 PM 75.2 °F 68.0 °F 78% 29.66 in 10.0 mi SSW 18.4 mph 26.5 mph N/A   Mostly Cloudy
1:46 PM 75.2 °F 68.0 °F 78% 29.66 in 10.0 mi South 17.3 mph 29.9 mph N/A   Mostly Cloudy
1:58 PM 74.3 °F 67.8 °F 80% 29.67 in 10.0 mi SSW 12.7 mph 25.3 mph N/A   Mostly Cloudy
2:38 PM 73.4 °F 68.0 °F 83% 29.62 in 8.0 mi SSW 18.4 mph 26.5 mph N/A Rain Light Rain
2:44 PM 71.6 °F 69.8 °F 94% 29.64 in 2.5 mi SW 19.6 mph 26.5 mph N/A Rain Heavy Rain
2:45 PM 71.6 °F 69.8 °F 94% 29.64 in 2.5 mi WSW 26.5 mph 38.0 mph N/A Rain Heavy Rain
2:48 PM 71.6 °F 69.8 °F 94% 29.65 in 1.0 mi West 35.7 mph 43.7 mph N/A Rain Rain
2:51 PM 69.8 °F 68.0 °F 94% 29.66 in 0.2 mi WSW 26.5 mph 43.7 mph N/A Fog , Rain Heavy Rain
2:54 PM 68.0 °F 68.0 °F 100% 29.66 in 0.2 mi West 29.9 mph 43.7 mph N/A Fog , Rain Heavy Rain
2:57 PM 68.0 °F 66.2 °F 94% 29.69 in 0.2 mi West 31.1 mph 43.7 mph N/A Fog , Rain Heavy Rain
2:58 PM 67.5 °F 66.9 °F 98% 29.70 in 0.2 mi West 29.9 mph 42.6 mph 0.67 in Fog , Rain Heavy Rain
3:01 PM 64.4 °F 64.4 °F 100% 29.68 in 0.2 mi West 31.1 mph 40.3 mph N/A Fog , Rain Heavy Rain
3:04 PM 62.6 °F 62.6 °F 100% 29.69 in 0.5 mi West 31.1 mph 40.3 mph N/A Fog , Rain Heavy Rain
3:07 PM 62.6 °F 60.8 °F 94% 29.69 in 0.8 mi West 29.9 mph 40.3 mph N/A Rain Heavy Rain
3:10 PM 60.8 °F 60.8 °F 100% 29.69 in 1.2 mi West 23.0 mph 40.3 mph N/A Rain Heavy Rain
3:13 PM 60.8 °F 60.8 °F 100% 29.69 in 1.5 mi West 21.9 mph 38.0 mph N/A Rain Light Rain
3:16 PM 60.8 °F 60.8 °F 100% 29.69 in 3.0 mi West 26.5 mph 38.0 mph N/A Rain Light Rain
3:19 PM 60.8 °F 60.8 °F 100% 29.70 in 6.0 mi West 20.7 mph 31.1 mph N/A Rain Light Rain
3:22 PM 60.8 °F 60.8 °F 100% 29.70 in 5.0 mi West 18.4 mph 31.1 mph N/A Rain Light Rain
3:25 PM 60.8 °F 59.0 °F 94% 29.69 in 5.0 mi West 16.1 mph 31.1 mph N/A Rain Light Rain
3:58 PM 60.3 °F 59.4 °F 97% 29.71 in 10.0 mi WSW 19.6 mph - 0.46 in Rain Light Rain
4:58 PM 58.8 °F 58.3 °F 98% 29.71 in 10.0 mi WSW 10.4 mph - 0.07 in Rain Light Rain
5:14 PM 59.0 °F 59.0 °F 100% 29.69 in 10.0 mi SSW 5.8 mph - N/A   Mostly Cloudy
5:41 PM 59.0 °F 57.2 °F 94% 29.68 in 10.0 mi SSW 5.8 mph - N/A Rain Light Rain
5:58 PM 58.3 °F 57.7 °F 98% 29.70 in 10.0 mi South 8.1 mph - 0.02 in Rain Light Rain
6:58 PM 57.2 °F 56.7 °F 98% 29.67 in 10.0 mi South 8.1 mph - 0.05 in Rain Light Rain
7:16 PM 57.2 °F 55.4 °F 94% 29.67 in 10.0 mi South 6.9 mph - N/A Rain Light Rain
7:19 PM 57.2 °F 55.4 °F 94% 29.67 in 10.0 mi South 10.4 mph - N/A Rain Light Rain
7:58 PM 56.3 °F 55.8 °F 98% 29.66 in 10.0 mi SW 6.9 mph - 0.09 in Rain Light Rain
8:05 PM 57.2 °F 55.4 °F 94% 29.65 in 10.0 mi South 9.2 mph - N/A   Scattered Clouds
8:41 PM 55.4 °F 55.4 °F 100% 29.64 in 10.0 mi SSW 4.6 mph - N/A   Mostly Cloudy
8:58 PM 56.1 °F 55.6 °F 98% 29.65 in 10.0 mi South 8.1 mph - 0.01 in   Mostly Cloudy
9:13 PM 55.4 °F 55.4 °F 100% 29.63 in 10.0 mi SW 9.2 mph - N/A   Mostly Cloudy
9:58 PM 56.1 °F 55.6 °F 98% 29.64 in 10.0 mi SW 13.8 mph - N/A   Clear
10:34 PM 55.4 °F 55.4 °F 100% 29.64 in 10.0 mi WSW 15.0 mph - N/A   Mostly Cloudy
10:58 PM 56.1 °F 55.6 °F 98% 29.65 in 10.0 mi SW 15.0 mph 26.5 mph N/A   Mostly Cloudy
11:10 PM 55.4 °F 55.4 °F 100% 29.66 in 10.0 mi WSW 15.0 mph - N/A   Mostly Cloudy
11:58 PM 56.1 °F 55.6 °F 98% 29.68 in 10.0 mi West 11.5 mph - N/A   Overcast